This demonstration page uses our WeatherBlox Daily Observations layout. Learn more.

Left ArrowRight Arrow

39.08367, -84.50855

Hourly Observations for December 4, 2019

Temp ( °F °C ) Dew Point ( °F °C ) Humidity (%) Winds ( mph kmh ) Pressure ( in mb ) Visibility ( mi km ) Precip ( " mm )
12:53 am 00:53 Clear 27 -2.8 25 -3.9 92 92 S 6 9 29.73 1007 10 16 N/A
1:53 am 01:53 Mostly Cloudy 33 0.6 28 -2.2 82 82 VRB 5 7 29.72 1007 10 16 N/A
2:53 am 02:53 Clear 32 undefined 27 -2.8 82 82 S 3 6 29.71 1006 10 16 N/A
3:53 am 03:53 Clear 33 0.6 28 -2.2 82 82 S 3 6 29.69 1006 10 16 N/A
4:53 am 04:53 Clear 33 0.6 28 -2.2 82 82 SW 6 9 29.69 1006 10 16 N/A
5:53 am 05:53 Clear 34 1.1 29 -1.7 82 82 SW 7 11 29.69 1006 10 16 N/A
6:53 am 06:53 Clear 34 1.1 29 -1.7 82 82 SW 6 9 29.71 1006 10 16 N/A
7:53 am 07:53 Sunny 34 1.1 29 -1.7 82 82 SW 7 11 29.72 1006 10 16 N/A
8:53 am 08:53 Sunny 37 2.8 31 -0.6 79 79 SW 8 13 29.72 1007 10 16 N/A
9:53 am 09:53 Sunny 39 3.9 31 -0.6 73 73 WSW 10 17 29.73 1007 10 16 N/A
10:53 am 10:53 Sunny 43 6.1 32 undefined 65 65 WSW 14 22 29.73 1007 10 16 N/A
11:53 am 11:53 Sunny 46 7.8 32 undefined 58 58 WSW 12 19 29.73 1007 10 16 N/A
12:53 pm 12:53 Sunny 48 8.9 31 -0.6 52 52 W 16 26 29.72 1006 10 16 N/A
1:53 pm 13:53 Sunny 49 9.4 30 -1.1 48 48 W 13 20 29.71 1006 10 16 N/A
2:53 pm 14:53 Mostly Sunny 50 10 29 -1.7 44 44 W 18 30 29.72 1006 10 16 N/A
3:53 pm 15:53 Sunny 50 10 27 -2.8 41 41 W 18 30 29.73 1007 10 16 N/A
4:53 pm 16:53 Sunny 48 8.9 28 -2.2 46 46 WSW 15 24 29.73 1007 10 16 N/A
5:53 pm 17:53 Clear 48 8.9 25 -3.9 41 41 W 18 30 29.76 1008 10 16 N/A
6:53 pm 18:53 Clear 46 7.8 26 -3.3 46 46 W 14 22 29.80 1009 10 16 N/A
7:53 pm 19:53 Clear 46 7.8 28 -2.2 50 50 W 10 17 29.83 1010 10 16 N/A
8:53 pm 20:53 Clear 44 6.7 29 -1.7 55 55 WNW 7 11 29.86 1011 10 16 N/A
9:53 pm 21:53 Clear 42 5.6 30 -1.1 62 62 WNW 6 9 29.90 1013 10 16 N/A
10:53 pm 22:53 Cloudy 42 5.6 31 -0.6 65 65 W 3 6 29.91 1013 10 16 N/A
11:53 pm 23:53 Clear 40 4.4 30 -1.1 68 68 W 6 9 29.93 1014 10 16 N/A

Powered by AerisWeather